Regional Weather Roundup
Issued by NWS Nashville, TN

Home | Current Version | Previous Version | Text Only | Print | Product List | Glossary On
Versions: 1 2 3 4 5 6 7 8 9 10 11 12 13 14 15 16 17 18 19 20 21 22 23 24 25 26 27 28 29 30 31 32 33 34 35 36 37 38 39 40 41 42 43 44 45 46 47 48 49 50
000
ASUS44 KOHX 170010
RWROHX
MIDDLE TENNESSEE HOURLY WEATHER ROUNDUP
NATIONAL WEATHER SERVICE NASHVILLE TN
700 PM CDT WED AUG 16 2017

NOTE: "FAIR" INDICATES FEW OR NO CLOUDS BELOW 12,000 FEET WITH
NO SIGNIFICANT WEATHER AND/OR OBSTRUCTIONS TO VISIBILITY.

* THESE REPORTS ARE NOT UNDER NWS QUALITY CONTROL AND MAY NOT
  REPORT WEATHER SUCH AS PRECIPITATION AND FOG.


TNZ005>011-023>034-057-059-062>066-078-080-170100
...NORTHERN MIDDLE TENNESSEE...

CITY           SKY/WX    TMP DP  RH WIND       PRES   REMARKS
CLARKSVILLE    CLEAR     86  72  62 SW3       29.97R HX  92
CROSSVILLE     CLEAR     80  72  76 SW3       30.08S
GALLATIN       CLEAR     86  75  70 VRB5      29.99F HX  95
DICKSON        CLOUDY    86  74  67 SW3       30.00R HX  94
LEBANON        CLOUDY    87  74  65 S5        29.97S HX  95
NASHVILLE      CLOUDY    87  73  62 S12       29.99R HX  94
PORTLAND       PTCLDY    82  77  83 CALM      29.98S HX  91
SMYRNA         PTCLDY    84  75  74 SW7       30.00R HX  92
SPARTA         CLEAR     84  75  74 CALM      30.01S HX  92
SPRINGFIELD    PTCLDY    84  79  84 CALM      29.96S HX  96
WEST NASHVILLE CLEAR     84  75  74 SW13G22   29.97R HX  92
$$
TNZ056-058-060-061-075>077-079-093>097-170100
...SOUTHERN MIDDLE TENNESSEE...

CITY           SKY/WX    TMP DP  RH WIND       PRES   REMARKS
COLUMBIA       PTCLDY    82  75  78 SW5G13    29.99R
FAYETTEVILLE   CLEAR     84  73  70 SW3       30.02R HX  91
MCMINNVILLE    CLEAR     86  77  74 CALM      30.03R HX  97
MURFREESBORO   CLEAR     86  71  60 SW8       29.98S HX  91
PULASKI        CLOUDY    79  77  94 SW3       30.01R
SHELBYVILLE    CLEAR     82  75  78 S5        30.01R
TULLAHOMA      CLEAR     82  72  69 S3        30.04S
WINCHESTER     CLEAR     84  73  70 CALM      30.04R HX  91
$$


...KEY TO REMARKS...
VSB - VISIBILITY IN MILES
WCI - WIND CHILL INDEX
HX  - HEAT INDEX




USA.gov is the U.S. government's official web portal to all federal, state and local government web resources and services.